DW4212 Weather Reports


Display with metric or nautical units.
time (UTC)temp
F
wind
direction
speed
MPH
gust
MPH
rain 1hr
in
rain 24hr
in
rain mn
in
humidity
%
barometer
mb
20260509010932 47 229 0.0 0.0 0.00 1.26 0.00 90 1011.9
20260509005940 47 229 0.0 0.0 0.00 1.26 0.00 90 1011.9
20260509004949 47 229 0.0 0.0 0.00 1.26 0.00 90 1012.0
20260509003938 46 229 0.0 0.0 0.00 1.26 0.00 90 1012.1
20260509002941 46 229 0.0 0.0 0.00 1.26 0.00 90 1012.2
20260509000947 46 229 0.0 0.0 0.00 1.26 0.00 90 1012.1
20260508235950 45 229 0.0 0.0 0.00 1.26 0.25 89 1012.1
20260508234938 45 229 0.0 0.0 0.00 1.26 0.25 89 1012.1
20260508233949 45 229 0.0 0.0 0.00 1.26 0.25 89 1012.0
20260508232932 45 229 0.0 0.0 0.00 1.26 0.25 88 1012.1
20260508231945 45 229 0.0 0.0 0.00 1.26 0.25 88 1012.1
20260508230934 46 229 0.0 0.0 0.00 1.26 0.25 88 1012.3
20260508225934 46 229 0.0 0.0 0.00 1.26 0.25 88 1012.3
20260508224943 46 229 0.0 0.0 0.00 1.26 0.25 88 1012.3
20260508223932 46 229 0.0 0.0 0.00 1.26 0.25 88 1012.4
20260508222936 46 229 0.0 0.0 0.00 1.26 0.25 88 1012.4
20260508221949 47 229 0.0 0.0 0.00 1.26 0.25 88 1012.4
20260508220938 47 229 0.0 0.0 0.00 1.26 0.25 87 1012.5
20260508215941 47 229 0.0 0.0 0.00 1.26 0.25 87 1012.6
20260508214949 47 229 0.0 0.0 0.00 1.26 0.25 88 1012.6
20260508213940 47 229 0.0 0.0 0.00 1.26 0.25 88 1012.7
20260508212951 47 229 0.0 0.0 0.00 1.26 0.25 87 1012.7
20260508211940 47 229 0.0 0.0 0.00 1.26 0.25 87 1012.7
20260508210950 48 229 0.0 0.0 0.00 1.26 0.25 86 1012.7
20260508205933 48 229 0.0 0.0 0.00 1.26 0.25 86 1012.8
20260508204921 48 229 0.0 0.0 0.00 1.26 0.25 86 1012.7
20260508203915 49 229 0.0 0.0 0.00 1.26 0.25 85 1012.6
20260508202918 49 229 0.0 0.0 0.00 1.26 0.25 84 1012.5
20260508201922 49 229 0.0 0.0 0.00 1.26 0.25 84 1012.3
20260508200911 50 229 0.0 0.0 0.00 1.26 0.25 83 1012.4
20260508195919 50 229 0.0 0.0 0.00 1.26 0.25 82 1012.3
20260508194929 51 229 0.0 0.0 0.00 1.26 0.25 81 1012.1
20260508193919 52 229 0.0 0.0 0.00 1.26 0.25 80 1012.0
20260508192923 53 229 0.0 0.0 0.00 1.26 0.25 79 1011.9
20260508191917 54 229 0.0 0.0 0.00 1.26 0.25 79 1012.0
20260508190924 55 229 0.0 0.0 0.00 1.26 0.25 79 1011.9
20260508185926 55 229 0.0 0.0 0.00 1.26 0.25 79 1011.8
20260508184920 55 229 0.0 0.0 0.00 1.26 0.25 80 1011.7
20260508183930 54 229 0.0 0.0 0.00 1.26 0.25 81 1011.6
20260508182914 54 229 0.0 0.0 0.00 1.26 0.25 79 1011.5
20260508181922 56 229 0.0 0.0 0.00 1.26 0.25 76 1011.3
20260508180916 56 229 0.0 0.0 0.00 1.26 0.25 73 1011.6
20260508175919 55 229 0.0 0.0 0.00 1.26 0.25 77 1011.6
20260508174928 55 229 0.0 1.0 0.00 1.26 0.25 80 1011.6
20260508173919 54 229 0.0 0.0 0.00 1.26 0.25 82 1011.7
20260508172926 54 229 0.0 0.0 0.00 1.26 0.25 84 1011.7
20260508171915 54 229 0.0 2.0 0.00 1.26 0.25 83 1011.7
20260508170925 55 229 0.0 4.0 0.00 1.26 0.25 84 1011.7
20260508165927 54 229 0.0 0.0 0.00 1.26 0.25 84 1011.7
20260508164920 54 229 0.0 1.0 0.04 1.26 0.25 87 1011.5
20260508163929 53 229 0.0 6.0 0.16 1.26 0.25 88 1011.7
20260508162913 52 281 0.0 0.0 0.31 1.26 0.25 89 1011.6
20260508161922 51 288 1.0 6.0 0.31 1.26 0.25 88 1011.6
20260508160919 51 296 1.0 8.0 0.31 1.26 0.25 87 1011.5
20260508155923 50 265 3.0 8.0 0.31 1.26 0.25 86 1011.7
20260508154911 51 324 4.0 15.0 0.28 1.22 0.24 83 1011.8
20260508153920 54 265 4.0 16.0 0.12 1.06 0.21 83 1011.9
20260508152923 54 170 1.0 5.0 0.00 0.94 0.19 81 1011.7
20260508151912 54 170 0.0 3.0 0.00 0.94 0.19 80 1011.4
20260508150922 55 170 0.0 4.0 0.00 0.94 0.19 78 1011.5
20260508145930 56 170 0.0 0.0 0.00 1.73 0.19 78 1011.5
20260508144918 56 170 0.0 5.0 0.00 1.73 0.19 73 1011.6
20260508143925 56 167 1.0 7.0 0.00 1.73 0.19 76 1011.7
20260508142928 56 169 2.0 6.0 0.00 1.73 0.19 75 1011.9
20260508141921 57 169 0.0 8.0 0.00 1.73 0.19 79 1011.9
20260508140933 56 169 0.0 6.0 0.00 1.73 0.19 82 1011.8
20260508135914 55 169 0.0 5.0 0.00 1.73 0.19 85 1011.7
20260508134924 54 169 0.0 4.0 0.00 1.73 0.19 86 1011.9
20260508133918 53 169 0.0 7.0 0.00 1.73 0.19 88 1012.2
20260508132921 52 119 1.0 4.0 0.00 1.73 0.19 89 1012.5
20260508131929 52 119 0.0 2.0 0.00 1.73 0.19 89 1012.4
20260508130918 51 119 0.0 0.0 0.00 1.73 0.19 90 1012.3
20260508125926 50 119 0.0 3.0 0.00 1.73 0.19 90 1012.3
20260508124915 49 119 0.0 4.0 0.00 1.73 0.19 91 1012.4
20260508123925 49 119 0.0 3.0 0.08 1.73 0.19 91 1012.6
20260508122913 49 119 0.0 0.0 0.08 1.73 0.19 91 1012.5
20260508121923 48 119 0.0 3.0 0.08 1.73 0.19 91 1012.7
20260508115922 47 121 0.0 0.0 0.43 1.73 0.19 91 1013.0
20260508114916 48 121 0.0 0.0 0.75 1.69 0.18 90 1013.0
20260508113928 48 121 0.0 0.0 0.83 1.65 0.17 89 1013.0
20260508112929 49 121 0.0 0.0 0.83 1.65 0.17 89 1013.0
20260508111919 48 121 0.0 0.0 0.83 1.65 0.17 89 1013.2
20260508110914 48 121 0.0 0.0 0.63 1.46 0.13 88 1013.3
20260508105918 49 121 0.0 0.0 0.47 1.34 0.10 87 1013.5
20260508104927 49 121 0.0 0.0 0.12 0.98 0.03 86 1013.0
20260508103916 49 121 0.0 0.0 0.00 0.87 0.01 86 1013.2
20260508102925 49 121 0.0 0.0 0.00 0.87 0.01 85 1012.8
20260508101913 49 121 0.0 0.0 0.00 0.87 0.01 86 1012.9
20260508100925 49 121 0.0 4.0 0.00 0.87 0.01 86 1012.9
20260508095912 49 121 0.0 4.0 0.00 0.87 0.01 85 1012.8
20260508094922 49 121 1.0 3.0 0.00 0.87 0.01 86 1012.9
20260508093913 49 120 0.0 3.0 0.00 0.87 0.01 86 1012.8
20260508092916 49 120 0.0 0.0 0.00 0.87 0.01 87 1012.8
20260508091910 49 120 0.0 4.0 0.00 0.87 0.01 88 1012.8
20260508090918 48 121 0.0 0.0 0.00 0.87 0.01 88 1012.7
20260508085922 48 121 0.0 0.0 0.00 0.87 0.01 89 1012.7
20260508084929 48 121 0.0 0.0 0.00 0.87 0.01 90 1012.7
20260508083923 48 121 0.0 0.0 0.00 0.87 0.01 91 1012.7
20260508082927 48 121 0.0 0.0 0.00 0.87 0.01 91 1012.7
20260508081917 47 121 0.0 0.0 0.00 0.87 0.01 91 1012.7
20260508080927 47 121 0.0 0.0 0.04 0.87 0.01 92 1012.7
20260508075914 46 121 0.0 0.0 0.04 0.94 0.01 92 1012.7
20260508074911 46 121 0.0 0.0 0.04 0.94 0.01 92 1012.6
20260508073921 45 121 0.0 0.0 0.04 0.94 0.01 92 1012.5
20260508072924 45 121 0.0 0.0 0.04 0.94 0.01 92 1012.5
20260508071917 45 121 0.0 0.0 0.04 0.94 0.01 92 1012.3
20260508070927 44 121 0.0 0.0 0.00 0.91 0.00 92 1012.3
20260508065912 44 121 0.0 0.0 0.00 1.10 0.00 92 1012.3
20260508064925 44 121 0.0 0.0 0.00 1.10 0.00 92 1012.5
20260508063916 44 121 0.0 0.0 0.00 1.10 0.00 92 1012.3
20260508062926 44 121 0.0 0.0 0.00 1.10 0.00 92 1012.2
20260508061915 44 121 0.0 0.0 0.00 1.10 0.00 92 1012.4
20260508060925 44 121 0.0 0.0 0.00 1.10 0.00 92 1012.6
20260508055911 44 121 0.0 0.0 0.00 1.10 0.00 92 1012.6
20260508054921 43 121 0.0 0.0 0.00 1.10 0.00 92 1012.6
20260508053911 43 121 0.0 0.0 0.00 1.10 0.00 92 1012.6
20260508052915 42 121 0.0 0.0 0.00 1.10 0.00 91 1012.6
20260508050917 42 121 0.0 0.0 0.00 1.10 0.00 91 1012.3
20260508045922 42 121 0.0 0.0 0.00 1.10 0.00 91 1012.2
20260508044911 42 121 0.0 0.0 0.00 1.10 0.00 91 1012.1
20260508043922 42 121 0.0 0.0 0.00 1.10 0.00 91 1012.1
20260508042926 42 121 0.0 0.0 0.00 1.10 0.00 91 1012.0
20260508041916 43 121 0.0 0.0 0.00 1.10 0.00 91 1011.9
20260508040910 43 121 0.0 0.0 0.00 1.10 0.00 91 1011.9
20260508035929 43 121 0.0 0.0 0.00 1.10 0.00 91 1011.9
20260508034919 43 121 0.0 0.0 0.00 1.10 0.00 91 1011.8
20260508033929 43 121 0.0 0.0 0.00 1.10 0.00 91 1011.9
20260508032916 43 121 0.0 0.0 0.00 1.10 0.00 91 1011.9
20260508031926 42 121 0.0 0.0 0.00 1.10 0.00 91 1011.8
20260508030917 43 121 0.0 0.0 0.00 1.10 0.00 90 1011.9
20260508025921 43 121 0.0 0.0 0.00 1.10 0.00 91 1011.8
20260508024915 43 121 0.0 0.0 0.00 1.10 0.00 91 1011.8
20260508023924 43 121 0.0 0.0 0.00 1.10 0.00 91 1012.0
20260508022926 43 121 0.0 0.0 0.00 1.10 0.00 91 1012.0
20260508021914 43 121 0.0 0.0 0.00 1.10 0.00 90 1012.1
20260508020923 43 121 0.0 0.0 0.00 1.10 0.00 91 1012.4
20260508015928 43 121 0.0 0.0 0.00 1.10 0.00 90 1012.4
20260508014915 43 121 0.0 0.0 0.00 1.10 0.00 90 1012.4
20260508013925 43 121 0.0 0.0 0.00 1.10 0.00 90 1012.5
20260508012925 43 121 0.0 0.0 0.00 1.10 0.00 90 1012.5
20260508011919 43 121 0.0 0.0 0.00 1.10 0.00 90 1012.6